Regional Weather Roundup
Issued by NWS Sterling, VA

Home | Current Version | Previous Version | Text Only | Print | Product List | Glossary Off
Versions: 1 2 3 4 5 6 7 8 9 10 11 12 13 14 15 16 17 18 19 20 21 22 23 24 25 26 27

000
ASUS41 KLWX 260210
RWRLWX

REGIONAL WEATHER ROUNDUP
NATIONAL WEATHER SERVICE BALTIMORE MD/WASHINGTON DC
1000 PM EDT THU AUG 25 2016

Note: "FAIR" indicates few or no clouds below 12,000 feet
with no significant weather and/or obstructions to visibility.
 TC=TEMPERATURE CELSIUS

 * =Non NWS site. Station does not report precipitation (e.g. rain,
    snow, etc.), thunder, or fog.

DCZ001-MDZ009-015-VAZ040>042-051-053>054-260300-
WASHINGTON METRO

CITY           SKY/WX    TMP DP  RH WIND       PRES   REMARKS
WASHINGTON NAT MOCLDY    82  76  81 S6        30.02F
DULLES         PTCLDY    81  74  79 S6        30.03S
ANDREWS AFB    PTCLDY    77  72  84 S6        30.02F
FT BELVOIR     PTCLDY    76  74  94 CALM      30.02F
QUANTICO       PTCLDY    83  74  74 CALM      30.03S
LEESBURG*      CLEAR     81  79  94 SW13      30.03F
MANASSAS*      CLEAR     79  79 100 CALM      30.03S
GAITHERSBURG*  PTCLDY    81  72  74 S3        30.07F

$$

MDZ006>007-011-014-260300-
BALTIMORE METRO

CITY           SKY/WX    TMP DP  RH WIND       PRES   REMARKS
BWI AIRPORT    PTCLDY    80  73  79 S3        30.02S
MD SCIENCE CTR   N/A     83  72  69 MISG      30.02S
MARTIN STATE   PTCLDY    81  79  94 S5        30.03F
ANNAPOLIS      CLEAR     82  77  84 S5        30.02S HX  90
FORT MEADE*    CLEAR    N/A N/A N/A CALM      30.05S

$$

MDZ012-015-019>023-260300-
MARYLAND EASTERN SHORE

CITY           SKY/WX    TMP DP  RH WIND       PRES   REMARKS
OCEAN CITY     MOCLDY    79  70  74 SW13      30.06S
SALISBURY      CLEAR     73  67  81 S6        30.06R
BAY BRIDGE AP* CLEAR     81  75  83 S8        30.03S

$$

MDZ017>025-260300-
SOUTHERN MARYLAND

CITY           SKY/WX    TMP DP  RH WIND       PRES   REMARKS
PATUXENT RIVER PTCLDY    78  71  79 S3        30.04S
ST INIGOES     CLEAR     80  73  79 S7        30.03F
LEONARDTOWN*   CLEAR     77  70  78 CALM      30.06S

$$

MDZ003>005-260300-
NORTH CENTRAL MARYLAND

CITY           SKY/WX    TMP DP  RH WIND       PRES   REMARKS
FREDERICK*     PTCLDY    79  79 100 CALM      30.04F
HAGERSTOWN APT CLEAR     83  72  69 S8        30.03R

$$

MDZ501>502-260300-
WESTERN MARYLAND

CITY           SKY/WX    TMP DP  RH WIND       PRES   REMARKS
OAKLAND*       CLEAR     70  70 100 SW7       30.18S
CUMBERLAND*    CLEAR     81  72  74 CALM      30.07S

$$

VAZ025>031-260300-
SHENANDOAH VALLEY

CITY           SKY/WX    TMP DP  RH WIND       PRES   REMARKS
WINCHESTER*    CLEAR     77  72  83 CALM      30.04F
FRONT ROYAL*   FAIR      77  75  94 S3        30.03F
LURAY*         FAIR     N/A N/A N/A CALM      30.06S
NEW MARKET*    FAIR     N/A N/A N/A CALM      30.05S
STAUNTON*      CLEAR     74  72  93 CALM      30.11S
WAYNESBORO*    FAIR      76  72  87 SW5       30.11S

$$

WVZ021-048>050-054>055-260300-
EASTERN WEST VIRGINIA PANHANDLE

CITY           SKY/WX    TMP DP  RH WIND       PRES   REMARKS
MARTINSBURG    CLEAR     79  74  84 S3        30.02S
PETERSBURG*    MOCLDY    77  73  89 CALM      30.07S

$$

VAZ036>039-050-260300-
CENTRAL FOOTHILLS

CITY           SKY/WX    TMP DP  RH WIND       PRES   REMARKS
CHARLOTTESVILL CLEAR     81  75  82 CALM      30.05S
CULPEPER*      CLEAR     76  76  99 CALM      30.04F
ORANGE*          N/A     79  79 100 CALM      30.06S
GORDONSVILLE*  FAIR      77  75  94 CALM      30.05S
WARRENTON*     FAIR      76  70  81 CALM      30.03F

$$

VAZ055>057-260300-
NORTH AND CENTRAL PIEDMONT

CITY           SKY/WX    TMP DP  RH WIND       PRES   REMARKS
FREDERICKSBRG* CLEAR     79  76  91 CALM      30.02F
STAFFORD*      CLEAR     76  74  96 CALM      30.07F

$$

NCZ024-NYZ072-PAZ021-071-VAZ022-071-260300-
OTHER REGIONAL OBSERVATIONS

CITY           SKY/WX    TMP DP  RH WIND       PRES   REMARKS
NEW YORK CITY    N/A     81  70  69 MISG        N/A
PHILADELPHIA   PTCLDY    80  71  74 S8        30.03S
PITTSBURGH     PTCLDY    81  72  74 SW9       30.02F
ROANOKE        CLEAR     81  70  69 CALM      30.12S
RICHMOND       PTCLDY    78  70  76 S6        30.05S
RALEIGH        PTCLDY    81  69  67 S5        30.09R

$$

ANZ530>537-260300-
MARINE OBSERVATIONS

STATION/POSITION TIME  TEMP    WIND        PRES
                       AIR SEA DIR/SP/G
                 (UTC) (F)     (DEG/KT/KT) (MB)
THOMAS PT LIGHT  0200   82 82  180/ 14/ 16 1017.8F
BALT KEY BRIDGE  0142   82                 1016.4S
COVE POINT       0142   80                 1017.6F
LEWISETTA        0142   80 82              1016.9F
SOLOMONS ISLAND  0142   81 84                N/A
PINEY POINT      0124          180/  8/ 10   N/A

$$





USA.gov is the U.S. government's official web portal to all federal, state and local government web resources and services.